Regional Weather Roundup
Issued by NWS

Home | Current Version | Previous Version | Graphics & Text | Print | Product List | Glossary On
Versions: 1 2 3 4 5 6 7 8 9 10 11 12 13 14 15 16 17 18 19 20 21 22 23 24 25 26 27 28 29 30 31 32 33 34 35 36 37 38 39 40 41 42 43 44 45 46 47 48 49 50
474
ASUS43 KDMX 231701
RWRIA

WEATHER ROUNDUP FOR IOWA
NATIONAL WEATHER SERVICE DES MOINES IA
1200 PM CDT TUE MAY 23 2017

NOTE: "FAIR" INDICATES FEW OR NO CLOUDS BELOW 12,000 FEET WITH NO
SIGNIFICANT WEATHER AND/OR OBSTRUCTIONS TO VISIBILITY.

* - THESE STATIONS ARE NOT NWS STATIONS...THUS NOT UNDER NWS
QUALITY CONTROL.  THEY ALSO DO NOT REPORT WEATHER SUCH
AS PRECIPITATION OR FOG.

IAZ001>003-012>014-020>022-031>034-043>046-231800-
   NORTHWEST IOWA

CITY           SKY/WX    TMP DP  RH WIND       PRES   REMARKS
CARROLL *      CLOUDY    57  46  67 N14       29.83F
CHEROKEE *     PTSUNNY   55  47  74 NW9G17    29.85F
DENISON *      CLOUDY    55  46  71 NW13G18   29.87S
LE MARS *      CLOUDY    54  46  76 NW13      29.89S
ORANGE CITY *  LGT RAIN  48  46  93 N7        29.87S
SHELDON *      CLOUDY    52  45  76 N14G21      N/A
SIOUX CITY     LGT RAIN  50  47  89 N15       29.89S
SPENCER        PTSUNNY   55  46  71 NW13      29.84F
STORM LAKE *     N/A     54  45  71 N17       29.85S
$$

IAZ055>058-069>071-079>083-090>094-231800-
   SOUTHWEST IOWA

CITY           SKY/WX    TMP DP  RH WIND       PRES   REMARKS
ATLANTIC *     CLOUDY    55  46  71 NW14      29.86F
AUDUBON *      CLOUDY    55  46  71 NW10G16   29.86S
CLARINDA *     PTSUNNY   59  46  63 N14       29.88F
COUNCIL BLFS * MOSUNNY   55  48  76 NW13G22   29.88F
CRESTON *      CLOUDY    57  45  62 NW18      29.85F
HARLAN  *      CLOUDY    55  45  67 NW15G21   29.89F
LAMONI         PTSUNNY   60  46  59 NW14G22   29.83F
RED OAK *      CLOUDY    59  45  58 NW16G22   29.87F
SHENANDOAH *   CLOUDY    59  46  63 NW13      29.89S
$$

IAZ047>049-059>061-072>074-084-231800-
   CENTRAL IOWA

CITY           SKY/WX    TMP DP  RH WIND       PRES   REMARKS
AMES           LGT RAIN  51  49  92 N9        29.82S
ANKENY *       MOSUNNY   61  48  63 W8G16     29.82F
BOONE *        LGT RAIN  52  50  93 NW12      29.81F
DES MOINES     CLOUDY    60  45  57 NW14      29.81F
GRINNELL*      CLOUDY    57  46  66 W8        29.81F
MARSHALLTOWN   RAIN      52  48  86 NW12G20   29.80S FOG
NEWTON *       PTSUNNY   57  48  72 W7        29.80S
PELLA *        MOSUNNY   59  46  62 W8        29.81F
PERRY *        PTSUNNY   57  49  74 NW13      29.83F
$$

IAZ004>006-015-016-023>025-035-036-231800-
   NORTH CENTRAL IOWA

CITY           SKY/WX    TMP DP  RH WIND       PRES   REMARKS
ALGONA *       CLOUDY    54  46  76 NW10      29.83S
CLARION *      CLOUDY    54  48  82 N8G14     29.82F
ESTHERVILLE    PTSUNNY   54  47  77 N17G24    29.83F
FORT DODGE *   CLOUDY    54  46  76 N7        29.83F
MASON CITY     CLOUDY    52  45  77 NW10      29.82F
FOREST CITY *  CLOUDY    55  41  58 NW9       29.81F
WEBSTER CITY * HVY RAIN  50  48  93 NW13G21   29.81S
IOWA FALLS *   CLOUDY    56  47  72 NW12      29.82S
$$

IAZ007>011-017>019-026>030-037>042-050>054-066-231800-
   NORTHEAST IOWA

CITY           SKY/WX    TMP DP  RH WIND       PRES   REMARKS
CEDAR RAPIDS   CLOUDY    59  51  75 NW9       29.77F
CHARLES CITY * CLOUDY    55  52  88 W12       29.79F
CLINTON *      PTSUNNY   61  54  77 SW6       29.77F
DECORAH *      CLOUDY    54  50  87 NW8G15    29.77S
DUBUQUE        CLOUDY    57  51  80 W9        29.76F
MONTICELLO *   CLOUDY    57  50  77 W7        29.76F
OELWEIN *      CLOUDY    59  50  72 NW9       29.77F
WATERLOO       CLOUDY    58  49  72 W8        29.78F
$$

IAZ064-065-067-068-078-231800-
   EAST CENTRAL IOWA

CITY           SKY/WX    TMP DP  RH WIND       PRES   REMARKS
DAVENPORT      CLOUDY    60  53  77 S3        29.77F
IOWA CITY      CLOUDY    60  50  69 N6        29.79F
MT. PLEASANT * PTSUNNY   57  52  83 NW7       29.79F
MUSCATINE *    DRIZZLE   59  52  77 W9        29.78F
QUAD CITIES      N/A    N/A N/A N/A MISG      29.76F
$$

IAZ062-063-075>077-085>089-095>099-231800-
   SOUTHEAST IOWA

CITY           SKY/WX    TMP DP  RH WIND       PRES   REMARKS
BURLINGTON     CLOUDY    60  54  80 W6        29.78F
FAIRFIELD *    CLOUDY    57  48  72 NW10      29.80S
FORT MADISON * CLOUDY    57  55  94 NW8       29.80S
KEOKUK *       CLOUDY    59  54  82 NW9       29.79S
OSKALOOSA *      N/A     61  48  62 NW12      29.80F
OTTUMWA        CLOUDY    61  50  67 NW9       29.80S
WASHINGTON *   CLOUDY    57  52  82 NW9       29.80F
$$

ABBREVIATIONS USED IN REMARKS
   TC - TEMPERATURES IN CELSIUS
  WCI - WIND CHILL INDEX
   HX - HEAT INDEX
  VSB - VISIBILITY
$$





USA.gov is the U.S. government's official web portal to all federal, state and local government web resources and services.